GLOBALSTAR M069 [+]

Last updated on July 6, 2021, 3:36 p.m. UTC

1 31573U 07020C   21186.90618102 -.00000080  00000-0  13064-3 0  9999
2 31573  51.9939 253.0621 0001441 192.8929 338.5289 12.62263562652428
UTC
Height (km)
Latitude
Longitude
Inclination
Orbital Period
UTC large
Height (km)
Speed (km/s)
/
Latitude / Longitude
Inclination (degrees)
Orbital Period (minutes)
Azimuth
Elevation
Range (km)
Doppler Factor
iOS Compass Heading
iOS Angle